Carlyle Lake Weather Center

Moon Phase Calendar



Carlyle Lake Water Level
Online Cameras

 


      

Current Conditions in Carlyle
10/28/2021 5:14:43 AM

50°F
Feels Like 44
Rain
Humidity
91%
Pressure
29.47"
Wind
14.4 mph (ESE)
Dew Point
47°F
UV Index
0/10 (Low)
Visibility
3 mi

Hourly Forecast

Date & Time Thu, Oct 28
5:00 AM
Thu, Oct 28
6:00 AM
Thu, Oct 28
7:00 AM
Thu, Oct 28
8:00 AM
Thu, Oct 28
9:00 AM
Thu, Oct 28
10:00 AM
Thu, Oct 28
11:00 AM
Thu, Oct 28
12:00 PM
Thu, Oct 28
1:00 PM
Thu, Oct 28
2:00 PM
Thu, Oct 28
3:00 PM
Thu, Oct 28
4:00 PM
Thu, Oct 28
5:00 PM
Thu, Oct 28
6:00 PM
Thu, Oct 28
7:00 PM
Thu, Oct 28
8:00 PM
Thu, Oct 28
9:00 PM
Thu, Oct 28
10:00 PM
Thu, Oct 28
11:00 PM
Fri, Oct 29
12:00 AM
Fri, Oct 29
1:00 AM
Fri, Oct 29
2:00 AM
Fri, Oct 29
3:00 AM
Fri, Oct 29
4:00 AM
Fri, Oct 29
5:00 AM
Fri, Oct 29
6:00 AM
Fri, Oct 29
7:00 AM
Fri, Oct 29
8:00 AM
Fri, Oct 29
9:00 AM
Fri, Oct 29
10:00 AM
Fri, Oct 29
11:00 AM
Fri, Oct 29
12:00 PM
Fri, Oct 29
1:00 PM
Fri, Oct 29
2:00 PM
Fri, Oct 29
3:00 PM
Fri, Oct 29
4:00 PM
Fri, Oct 29
5:00 PM
Fri, Oct 29
6:00 PM
Fri, Oct 29
7:00 PM
Fri, Oct 29
8:00 PM
Fri, Oct 29
9:00 PM
Fri, Oct 29
10:00 PM
Fri, Oct 29
11:00 PM
Sat, Oct 30
12:00 AM
Sat, Oct 30
1:00 AM
Sat, Oct 30
2:00 AM
Sat, Oct 30
3:00 AM
Sat, Oct 30
4:00 AM
Condition
Rain

Rain

Rain

Clouds

Rain

Clouds

Clouds

Clouds

Clouds

Clouds

Rain

Rain

Rain

Rain

Rain

Rain

Rain

Rain

Clouds

Clouds

Rain

Rain

Rain

Rain

Rain

Rain

Rain

Rain

Rain

Clouds

Rain

Rain

Clouds

Clouds

Clouds

Rain

Rain

Rain

Rain

Rain

Rain

Rain

Rain

Clouds

Clouds

Clouds

Clouds

Clouds
Temperature 50°F50°F50°F50°F51°F52°F53°F54°F56°F58°F57°F57°F57°F56°F55°F54°F55°F54°F54°F54°F54°F54°F53°F53°F53°F52°F52°F52°F53°F54°F54°F54°F54°F54°F53°F52°F51°F51°F52°F52°F52°F52°F53°F53°F54°F53°F53°F53°F
Feels Like 44°F44°F49°F49°F50°F51°F52°F53°F55°F58°F57°F57°F57°F56°F54°F54°F54°F54°F54°F54°F54°F53°F53°F53°F52°F52°F52°F52°F52°F54°F54°F54°F54°F53°F52°F51°F51°F50°F51°F51°F51°F51°F52°F53°F53°F53°F52°F52°F
Cloudiness 100%100%100%100%100%100%100%100%100%100%100%100%100%97%97%96%98%98%98%99%99%100%100%100%100%100%100%100%100%100%100%100%100%100%100%100%100%100%100%100%100%100%100%100%100%100%100%100%
Visibility 3 mi6 mi6 mi6 mi6 mi6 mi6 mi6 mi6 mi6 mi6 mi6 mi6 mi6 mi5 mi5 mi6 mi6 mi6 mi6 mi6 mi6 mi6 mi6 mi6 mi6 mi6 mi6 mi6 mi6 mi6 mi6 mi6 mi6 mi6 mi6 mi6 mi6 mi6 mi6 mi6 mi6 mi6 mi6 mi6 mi6 mi6 mi6 mi
Precipitation 87%100%100%67%75%75%66%59%63%45%61%73%77%83%83%91%84%84%87%83%93%80%71%76%76%88%85%68%75%75%79%79%80%45%40%58%81%99%100%94%90%89%85%81%81%5%1%1%
Humidity 91%90%91%91%92%91%92%91%90%87%89%89%89%93%96%96%96%96%97%96%97%97%96%96%95%94%94%95%94%91%92%93%90%89%88%90%92%93%92%92%92%91%91%90%89%89%89%88%
Dew Point 47°F47°F48°F48°F49°F50°F50°F51°F53°F54°F54°F54°F54°F54°F53°F53°F53°F53°F53°F53°F53°F53°F52°F52°F51°F51°F51°F51°F51°F52°F52°F52°F51°F50°F50°F49°F49°F49°F49°F50°F50°F50°F50°F50°F50°F50°F50°F49°F
Pressure 29.47"29.47"29.47"29.44"29.44"29.44"29.41"29.41"29.38"29.38"29.35"29.38"29.38"29.38"29.41"29.41"29.41"29.44"29.44"29.44"29.44"29.44"29.44"29.44"29.47"29.47"29.47"29.5"29.53"29.53"29.53"29.56"29.53"29.53"29.56"29.56"29.56"29.56"29.59"29.59"29.59"29.59"29.59"29.59"29.62"29.62"29.62"29.62"
Wind Speed 14.4 mph14.4 mph15 mph16 mph14 mph13.9 mph13 mph12.9 mph11.6 mph11.2 mph8.7 mph8.7 mph7.7 mph8.5 mph9.2 mph9.7 mph8.4 mph6.6 mph5.1 mph5.7 mph7.2 mph7.8 mph8.9 mph9.9 mph10.6 mph11.4 mph10.5 mph10.5 mph9.2 mph11 mph10.9 mph11.1 mph13.4 mph14 mph14.5 mph14.5 mph14.7 mph15 mph16.1 mph16.5 mph17.4 mph18.3 mph18.3 mph17.8 mph18 mph17.6 mph17.8 mph17.6 mph
Wind
Direction
110°
ESE
111°
ESE
111°
ESE
110°
ESE
108°
ESE
110°
ESE
107°
ESE
104°
ESE
112°
ESE
110°
ESE
91°
E
87°
E
88°
E
90°
E
80°
E
80°
E
81°
E
77°
ENE
52°
NE
32°
NNE
25°
NNE
16°
NNE

N
359°
N
348°
NNW
353°
N
352°
N
355°
N
352°
N
350°
N
343°
NNW
335°
NNW
340°
NNW
336°
NNW
335°
NNW
327°
NNW
327°
NNW
324°
NW
329°
NNW
329°
NNW
331°
NNW
331°
NNW
333°
NNW
336°
NNW
334°
NNW
332°
NNW
333°
NNW
334°
NNW

Daily Forecast

Date High Low Precip. Humidity
Today
Oct 28

Rain
58 °F
50 °F
100%
91%
Friday
Oct 29

Rain
54 °F
51 °F
100%
93%
Saturday
Oct 30

Rain
60 °F
53 °F
81%
70%
Sunday
Oct 31

Clear
64 °F
49 °F
0%
55%
Monday
Nov 1

Clouds
60 °F
45 °F
6%
56%
Tuesday
Nov 2

Rain
49 °F
39 °F
100%
75%
Wednesday
Nov 3

Clouds
49 °F
37 °F
0%
41%
Thursday
Nov 4

Clear
51 °F
35 °F
0%
43%
Friday
Nov 5

Clouds
56 °F
38 °F
0%
49%
Saturday
Nov 6

Clouds
54 °F
40 °F
14%
59%
Sunday
Nov 7

Rain
48 °F
45 °F
100%
96%
Monday
Nov 8

Clouds
45 °F
37 °F
0%
69%
Tuesday
Nov 9

Clouds
54 °F
35 °F
0%
54%
Wednesday
Nov 10

Clear
62 °F
41 °F
0%
49%
Thursday
Nov 11

Rain
58 °F
48 °F
99%
71%
Friday
Nov 12

Rain
62 °F
54 °F
89%
88%

Temperature 8-14 Day Outlook



Precipitation 8-14 Day Outlook




Quick Links
Carlyle Lake News
Carlyle Lake Photos
Carlyle Lake Videos




About Us
Contact Us
Site Map
Search Site
Advertise With Us
   
Carlyle.USLakes.info
THE CARLYLE LAKE WEBSITE

Copyright 2021, Lakes Online
Privacy    |    Legal